Location: Newark
(45.5000°N, 11.4167°E)
Time: 01:33:49
(UTC+00:00)

Vanguard 3 - Pass Details

Date: 30 August 2019
Orbit: 508 x 3263 km, 33.4° (Epoch: 19 September)

Event Time Altitude Azimuth Distance (km) Brightness Sun altitude
Rises 15:21:08 0° 250° (WSW) 5,956 12.9 26.2°
Reaches altitude 10° 15:26:05 10° 243° (WSW) 4,472 12.6 25.3°
Maximum altitude 15:35:50 35° 184° (S) 2,021 9.6 23.7°
Drops below altitude 10° 15:41:47 10° 120° (ESE) 2,695 9.5 22.6°
Sets 15:44:02 0° 111° (ESE) 3,384 9.8 22.2°
